Theta_e
313 312 318 322 323 321 324 324 325 326 325 324 325 326 328 327 328 328 325 328 328 330 331 331 327 324 323 321 322 325 324 324 324 326 327 328 330 330 331 330 329 328 327
318 321 321 322 322 322 324 325 325 325 325 325 325 325 327 328 328 328 324 322 321 328 330 329 326 326 325 328 329 329 328 326 325 327 329 329 329 330 330 329 328 327 327
319 320 320 320 321 322 325 328 327 325 325 325 325 326 327 329 331 331 328 328 327 327 326 324 324 329 330 330 329 330 330 330 329 328 328 328 328 328 328 329 328 328 328
319 317 318 321 321 324 323 324 325 326 326 326 325 325 326 327 327 330 327 325 323 324 325 325 327 330 329 329 328 330 329 329 328 328 328 328 327 328 327 327 328 328 326
319 319 320 316 321 322 323 324 325 325 326 323 325 326 325 327 325 326 327 326 328 327 327 327 327 327 328 328 328 328 328 327 326 326 325 326 328 328 328 328 326 326 326
316 317 319 319 320 321 323 323 323 324 324 326 324 325 326 327 327 327 327 325 324 326 327 326 326 326 327 326 326 326 326 326 326 325 326 328 328 327 327 327 326 326 325
312 312 314 316 318 319 319 320 322 323 323 323 323 324 323 324 324 323 323 324 323 323 322 322 322 322 323 324 325 324 324 325 326 327 327 327 327 328 327 327 326 325 324
309 309 311 315 316 316 317 318 320 321 321 322 323 320 322 323 323 323 324 323 323 322 322 323 324 324 323 324 325 324 323 324 325 325 326 325 325 326 326 326 326 323 322
308 308 309 309 311 311 312 314 314 314 315 315 314 317 322 322 320 320 321 323 324 324 324 324 325 324 324 324 323 323 323 324 324 324 324 324 323 325 325 324 325 322 322
305 306 307 308 307 308 307 307 308 309 309 309 310 311 312 314 320 323 323 323 323 323 323 324 326 326 325 325 325 324 326 325 324 324 323 324 325 324 323 323 324 323 322
304 305 305 306 304 304 304 304 304 305 305 305 305 306 307 308 309 310 312 313 314 315 316 316 315 316 317 319 321 324 325 323 323 325 324 324 325 324 324 324 323 323 322
304 304 304 304 304 304 304 305 305 305 305 305 305 305 304 304 304 305 306 307 307 308 309 310 310 311 312 313 314 319 322 321 321 323 324 324 322 324 323 323 322 322 319
304 304 304 304 304 304 305 304 304 304 304 304 304 304 304 304 304 304 304 304 304 304 305 306 308 309 310 311 313 314 318 318 319 321 322 323 321 323 322 322 321 317 312
304 304 304 304 304 304 304 304 303 303 302 302 302 302 302 302 302 303 303 303 303 303 304 304 304 306 308 309 310 312 318 317 317 319 321 320 321 322 322 320 320 313 311
304 304 304 304 304 304 302 301 300 300 299 299 298 297 297 297 297 298 298 299 301 302 303 303 304 304 305 307 309 310 311 315 316 318 318 320 320 320 319 317 314 311 310
304 304 304 304 303 302 302 300 297 296 296 296 296 296 296 295 295 295 295 295 296 296 298 302 304 304 305 305 307 308 309 311 314 316 316 317 317 317 316 312 311 310 309
304 304 304 303 302 301 299 297 295 294 294 294 295 295 295 295 295 295 295 295 295 294 294 294 297 301 304 305 305 306 308 308 308 311 312 313 313 313 312 313 311 309 308
304 304 303 302 301 299 296 294 293 293 293 294 294 294 293 293 293 293 293 293 293 293 293 293 293 293 295 300 305 305 305 306 307 307 307 307 308 309 309 309 309 310 310
304 303 301 300 297 295 294 293 293 292 292 292 292 292 292 292 292 291 291 291 291 291 291 291 291 291 292 292 295 299 302 303 304 305 306 306 306 306 306 306 306 308 307
302 301 300 297 295 294 293 293 293 292 292 292 292 291 291 291 290 290 290 290 290 290 290 290 290 290 290 291 291 296 299 301 302 303 305 305 305 305 305 305 305 306 305
300 298 296 294 293 293 293 293 292 292 292 291 291 291 291 290 290 289 289 289 289 289 289 289 289 289 289 290 291 291 297 299 300 302 302 304 304 305 304 304 304 305 305
297 295 295 294 293 292 292 292 292 291 291 290 290 290 290 289 289 289 288 288 287 287 288 288 288 288 288 288 289 290 292 296 297 299 300 302 303 303 303 303 304 303 303
295 294 293 293 292 292 291 291 290 290 289 289 289 289 288 288 288 288 287 287 286 286 286 287 286 287 287 288 288 288 288 291 295 296 298 299 301 301 301 301 301 302 301
293 292 292 292 291 290 289 289 289 288 287 287 287 287 287 287 286 286 286 285 285 285 285 285 286 287 287 287 286 286 287 288 291 295 297 298 298 299 299 300 300 300 300
292 291 290 289 288 288 287 287 287 287 286 286 286 286 286 286 285 285 285 285 285 285 285 286 287 287 288 287 286 288 288 289 290 291 292 295 296 297 298 298 299 298 298
290 288 288 288 288 288 287 287 287 287 286 286 286 286 285 285 285 285 285 285 284 285 285 285 286 287 287 287 287 287 287 288 289 290 291 292 295 295 296 296 298 298 297
Wind_Speed
22 21 15 12 13 14 18 16 16 16 22 26 27 23 24 27 22 28 32 31 34 36 35 31 30 30 29 29 27 25 24 24 22 21 20 21 20 19 18 18 20 20 19
11 10 8 8 10 15 20 17 17 19 19 18 22 26 25 30 29 34 35 31 31 33 35 35 33 30 31 29 27 26 25 24 22 22 17 16 18 23 21 20 23 26 24
10 10 11 9 11 15 15 15 17 18 20 22 23 25 25 29 31 29 42 36 34 35 35 37 36 34 31 31 29 28 27 25 24 23 16 10 13 18 24 27 27 26 27
4 4 6 5 7 6 10 14 18 14 19 21 22 30 30 26 24 29 31 37 35 32 32 36 33 32 30 29 28 28 24 23 22 22 23 21 16 12 9 15 21 26 24
3 2 3 10 7 3 2 4 10 2 10 22 20 15 30 23 19 22 25 21 22 32 29 28 26 26 26 26 24 24 25 25 25 22 24 31 32 32 28 23 26 29 30
3 7 9 11 7 5 6 6 4 3 11 19 10 4 11 11 16 20 21 25 21 23 25 24 20 18 20 23 22 23 25 28 28 27 32 34 35 39 37 35 32 31 30
10 10 16 14 13 13 11 9 8 12 7 6 6 5 3 7 3 3 6 11 9 13 11 16 22 26 26 23 25 27 26 28 31 27 30 33 36 36 34 36 32 32 32
16 17 19 18 13 15 14 12 12 7 5 6 5 8 3 3 6 8 9 7 13 15 16 18 17 18 27 34 31 29 30 27 27 25 26 30 33 33 34 35 37 30 31
13 17 19 22 17 16 15 13 11 10 10 9 8 6 3 9 6 3 4 12 11 13 16 20 19 25 20 21 23 23 25 23 23 24 24 25 22 27 22 24 28 21 14
15 19 19 19 17 15 15 13 13 12 11 9 9 8 6 5 3 9 14 16 16 14 20 19 17 15 18 20 24 25 26 27 28 29 29 28 27 24 23 22 22 24 23
15 17 17 17 14 13 13 13 13 11 11 10 10 8 8 6 4 0 3 5 8 11 14 14 14 14 15 18 21 23 23 25 25 25 27 31 26 24 30 27 26 27 24
13 12 11 10 10 12 13 13 12 11 11 10 10 10 9 8 7 6 6 7 8 10 11 13 14 14 15 17 18 19 20 22 23 23 24 26 21 27 29 23 22 23 21
9 9 9 10 11 12 12 12 12 12 12 12 11 10 10 9 9 9 9 9 10 11 13 15 15 15 15 16 15 16 18 19 19 20 22 22 24 27 26 25 24 23 21
6 7 7 8 10 12 12 12 12 12 12 11 11 11 11 11 13 13 12 12 13 14 14 15 16 16 17 17 17 16 15 16 19 20 20 24 22 28 24 26 22 22 22
3 4 5 7 10 11 12 12 12 11 11 11 11 12 12 13 12 12 14 14 15 16 16 17 17 17 18 18 18 18 18 20 19 21 22 23 25 26 24 23 22 23 24
3 1 5 8 10 11 12 12 12 12 12 11 12 12 13 14 14 15 16 17 17 16 17 17 18 18 18 19 20 20 19 19 21 22 22 24 27 27 27 26 24 25 25
2 3 5 8 9 11 12 12 11 10 10 11 12 14 16 18 19 19 19 20 21 22 21 20 19 18 18 20 21 20 22 21 20 21 23 21 21 22 23 23 24 24 24
3 4 7 9 11 10 9 9 10 11 12 12 14 16 17 19 20 22 23 24 25 24 24 24 22 22 20 20 20 22 22 24 23 21 22 23 22 23 23 25 25 26 26
4 6 8 9 9 9 10 10 11 12 12 14 16 18 20 20 22 24 24 23 25 24 24 24 24 24 22 20 20 19 21 23 24 24 23 24 24 23 24 24 26 26 28
6 8 9 10 10 11 13 15 16 18 18 20 21 21 23 24 24 24 25 25 24 25 25 26 24 24 24 21 20 18 20 22 23 25 25 25 26 26 27 28 28 30 28
6 7 9 9 10 11 13 16 18 20 21 23 24 24 24 26 25 25 25 25 25 25 25 25 24 24 22 21 21 20 18 18 21 24 26 25 25 26 29 29 29 29 26
7 8 9 10 11 14 18 21 23 24 25 25 26 27 28 27 26 27 26 25 24 25 25 24 25 23 22 22 18 18 19 18 18 22 26 26 25 25 29 29 29 28 27
7 9 11 14 15 18 21 23 22 22 23 24 25 26 28 28 28 29 29 28 26 25 25 26 28 26 23 22 21 20 19 19 22 20 20 26 25 23 25 30 30 27 30
9 11 14 17 19 20 20 20 21 23 25 26 26 26 26 27 27 27 27 28 28 27 26 25 25 25 26 24 23 23 20 19 17 21 20 18 24 25 23 25 29 31 31
10 13 16 17 18 19 20 21 22 22 23 24 24 24 24 25 27 27 28 29 28 25 25 24 23 24 27 27 24 22 23 22 20 20 21 18 18 20 23 25 26 30 31
12 14 15 18 21 22 23 22 21 21 23 24 25 25 27 28 28 30 32 29 27 24 22 22 22 25 26 25 23 22 22 22 21 21 21 20 22 19 20 25 28 29 32
Wind_Direction
267 264 253 249 248 250 254 254 245 245 241 247 248 250 232 216 220 218 203 209 207 212 209 218 211 202 204 206 205 208 214 219 219 223 230 232 235 232 239 230 243 246 258
221 213 222 252 260 249 247 236 241 241 246 254 253 245 240 230 226 203 197 197 209 215 221 216 209 208 203 204 206 208 214 217 215 216 220 231 237 231 230 234 249 255 257
193 207 213 226 244 248 235 235 241 248 246 246 260 242 240 226 209 199 200 197 206 212 212 209 208 206 208 210 210 214 215 215 211 215 211 207 223 228 235 241 247 257 260
147 176 181 204 234 232 238 245 239 250 243 245 244 230 225 223 213 198 205 198 201 203 205 206 206 209 214 217 220 226 229 226 230 227 221 232 237 212 214 233 242 238 235
330 248 199 275 259 171 173 194 216 70 241 261 213 185 207 211 200 192 199 202 208 200 213 210 210 215 222 225 232 235 234 231 239 247 254 245 240 239 239 244 241 228 227
52 112 143 143 148 142 138 123 121 131 58 168 193 106 110 145 160 172 180 198 208 203 209 209 220 237 230 236 235 241 243 244 243 245 240 242 241 240 231 230 234 233 225
76 88 104 103 83 83 80 69 82 72 47 105 102 38 102 166 180 215 223 229 215 220 241 263 260 257 248 245 249 248 251 249 250 243 246 247 249 250 254 243 243 220 219
73 76 83 83 74 61 61 58 68 72 24 33 31 59 42 194 222 234 269 255 236 229 236 261 260 251 244 247 252 254 253 252 249 247 250 256 251 249 251 249 240 224 205
70 74 80 80 75 70 65 66 70 70 58 54 59 66 173 200 149 134 274 278 263 249 247 269 272 247 244 246 247 249 251 261 258 254 252 254 261 252 244 248 250 213 213
73 70 70 75 74 76 76 77 75 74 70 64 60 60 68 78 116 229 253 256 268 264 266 271 266 260 255 254 252 255 257 256 256 255 254 258 261 252 240 243 242 242 238
77 76 75 71 70 76 77 72 71 64 58 48 48 50 48 47 60 141 250 270 274 267 264 274 273 270 261 256 254 250 256 257 253 257 256 256 260 257 238 246 238 229 222
91 92 92 91 79 67 60 54 48 41 37 30 17 14 12 10 2 342 340 316 296 289 284 280 277 273 271 267 263 258 255 257 256 254 257 254 252 255 250 230 230 233 230
104 92 86 74 61 49 41 35 28 21 12 6 359 354 348 337 330 327 324 310 296 286 283 280 280 281 279 274 268 261 259 260 258 260 257 258 254 250 228 227 227 226 226
109 89 72 55 39 31 24 17 13 11 7 0 356 352 350 350 347 342 329 317 311 304 295 289 281 277 277 279 281 271 259 263 261 256 261 249 255 251 238 232 228 230 231
108 75 41 30 23 15 10 6 2 1 359 356 358 358 357 353 351 342 339 337 330 319 309 299 295 289 282 274 272 274 266 260 257 254 251 256 242 238 235 235 230 232 233
142 57 9 1 1 358 358 356 353 351 350 349 348 344 341 338 337 335 334 331 327 323 319 308 298 292 284 276 268 265 265 259 262 263 258 250 247 236 231 231 232 235 239
208 325 342 347 338 345 347 349 347 345 340 341 335 328 327 327 324 321 317 315 315 317 318 316 311 301 290 281 274 266 261 259 256 256 256 259 251 245 243 245 238 243 242
236 302 321 321 326 327 338 343 338 332 330 324 320 316 314 315 313 314 315 316 315 315 313 311 311 307 303 297 284 271 267 262 257 257 257 255 252 249 244 244 242 237 240
286 310 314 315 321 330 330 324 322 320 316 311 308 308 312 313 315 314 312 312 310 308 308 308 307 306 305 300 293 291 279 268 263 258 255 255 252 250 249 247 246 243 241
287 298 311 325 329 324 317 316 318 318 321 316 316 316 320 321 318 314 312 310 307 305 303 301 301 301 303 299 294 282 284 287 276 261 256 255 252 246 247 250 249 246 246
304 315 319 319 318 309 299 298 302 309 311 312 313 315 314 315 313 312 312 311 309 305 301 298 294 296 300 300 291 284 273 290 281 272 261 256 256 252 250 251 250 252 252
303 308 308 310 310 308 307 307 310 313 311 310 308 308 311 312 312 312 312 310 307 304 302 298 296 293 294 298 297 294 275 269 281 275 270 262 257 254 252 250 253 255 255
305 304 303 302 306 309 311 312 314 313 309 306 304 303 304 304 305 307 310 310 309 305 300 299 299 297 293 289 294 297 294 280 271 279 277 267 261 258 256 251 252 251 247
291 293 298 301 302 304 306 308 309 308 305 303 302 302 302 304 303 303 305 307 308 309 306 302 299 297 294 292 295 295 291 289 283 271 277 281 263 259 257 253 247 245 243
290 297 303 305 309 309 307 307 308 307 305 303 302 303 304 305 306 305 306 308 307 308 306 302 299 296 295 297 299 299 298 298 295 293 287 283 283 266 262 257 247 239 241
300 304 309 310 310 309 307 309 308 306 305 304 304 303 303 303 303 303 302 300 303 303 300 296 292 291 288 291 293 296 295 296 299 297 286 280 281 274 269 264 255 246 243